San Lorenzo, CA

10:25 AM PST on February 07, 2016 (GMT -0800)
Hayward Executive

Weather History for KHWD - November, 2012

Change the Weather History Date:

Monday, November 19, 2012

  Actual Average Record
Temperature  
Mean Temperature 60 °F 54 °F  
Max Temperature 68 °F 62 °F 74 °F (2005)
Min Temperature 51 °F 47 °F 40 °F (2009)
Degree Days  
Heating Degree Days 5    
Month to date heating degree days 137  
Since 1 July heating degree days 339  
Cooling Degree Days 0    
Month to date cooling degree days 7  
Year to date cooling degree days 191  
Growing Degree Days 8 (Base 50)    
Moisture  
Dew Point 46 °F    
Average Humidity 61    
Maximum Humidity 77    
Minimum Humidity 44    
Precipitation  
Precipitation 0.00 in - 0.36 in (2010)
Month to date precipitation 0.90  
Year to date precipitation 10.36  
Since 1 July precipitation 1.24  
Sea Level Pressure  
Sea Level Pressure 30.22 in    
Wind  
Wind Speed 6 mph (SE)    
Max Wind Speed 14 mph    
Max Gust Speed 17 mph    
Visibility 10 miles    
Events      
T = Trace of Precipitation, MM = Missing Value Source: NWS Daily Summary

Daily Weather History Graph

Daily Weather History Graph

Search for Another Location

Airport or City:

Trip Planner

Search our weather history database for the weather conditions in past years. The results will help you decide how hot, cold, wet, or windy it might be!

Date:

Astronomy

Nov. 19, 2012 Rise Set
Actual Time 6:53 AM PST 4:54 PM PST
Civil Twilight 6:25 AM PST 5:22 PM PST
Nautical Twilight 5:53 AM PST 5:54 PM PST
Astronomical Twilight 5:21 AM PST 6:25 PM PST
Moon 12:01 PM PST (11/19) 11:24 PM PST (11/19)
Length of Visible Light 10h 57m
Length of Day
10h 01m
Waxing Crescent, 42% of the Moon is Illuminated
Nov 19
Waxing Crescent
Nov 20
First Quarter
Nov 28
Full
Dec 6
Last Quarter
Dec 13
New

Hourly Weather History & Observations

Time (PST) Temp. Dew Point Humidity Pressure Visibility Wind Dir Wind Speed Gust Speed Precip Events Conditions
12:54 AM 55.0 °F 46.9 °F 74% 30.20 in 10.0 mi ENE 3.5 mph - N/A   Overcast
1:54 AM 55.0 °F 46.9 °F 74% 30.21 in 10.0 mi ENE 3.5 mph - N/A   Overcast
2:54 AM 54.0 °F 46.9 °F 77% 30.20 in 10.0 mi East 3.5 mph - N/A   Overcast
3:54 AM 55.0 °F 46.9 °F 74% 30.20 in 10.0 mi Calm Calm - N/A   Overcast
4:54 AM 54.0 °F 46.0 °F 75% 30.21 in 10.0 mi SSE 4.6 mph - N/A   Overcast
5:54 AM 52.0 °F 45.0 °F 77% 30.22 in 10.0 mi ESE 3.5 mph - N/A   Partly Cloudy
6:54 AM 51.1 °F 45.0 °F 80% 30.23 in 10.0 mi Calm Calm - N/A   Clear
7:54 AM 54.0 °F 46.0 °F 75% 30.24 in 10.0 mi East 3.5 mph - N/A   Clear
8:54 AM 57.0 °F 44.1 °F 62% 30.26 in 10.0 mi ESE 5.8 mph - N/A   Clear
9:54 AM 60.1 °F 42.1 °F 51% 30.26 in 10.0 mi SSE 8.1 mph - N/A   Clear
10:54 AM 64.0 °F 43.0 °F 46% 30.26 in 10.0 mi SSE 12.7 mph - N/A   Clear
11:54 AM 64.9 °F 43.0 °F 45% 30.25 in 10.0 mi South 11.5 mph - N/A   Clear
12:54 PM 66.9 °F 44.1 °F 44% 30.22 in 10.0 mi SSE 11.5 mph - N/A   Clear
1:54 PM 66.9 °F 44.1 °F 44% 30.22 in 10.0 mi South 10.4 mph - N/A   Clear
2:54 PM 66.9 °F 44.1 °F 44% 30.22 in 10.0 mi SSE 8.1 mph - N/A   Clear
3:54 PM 66.0 °F 44.1 °F 45% 30.22 in 10.0 mi South 5.8 mph - N/A   Clear
4:54 PM 63.0 °F 46.9 °F 56% 30.21 in 10.0 mi SSW 5.8 mph - N/A   Clear
5:54 PM 61.0 °F 48.9 °F 64% 30.22 in 9.0 mi SSW 4.6 mph - N/A   Clear
6:54 PM 60.1 °F 46.9 °F 62% 30.21 in 10.0 mi SSE 6.9 mph - N/A   Clear
7:54 PM 59.0 °F 48.0 °F 67% 30.21 in 10.0 mi SSE 3.5 mph - N/A   Clear
8:54 PM 57.0 °F 48.0 °F 72% 30.21 in 10.0 mi SE 5.8 mph - N/A   Clear
9:54 PM 57.0 °F 46.0 °F 67% 30.21 in 10.0 mi SE 5.8 mph - N/A   Clear
10:54 PM 55.9 °F 46.0 °F 69% 30.20 in 10.0 mi SE 6.9 mph - N/A   Clear
11:54 PM 57.0 °F 46.9 °F 69% 30.20 in 10.0 mi SE 6.9 mph - N/A   Mostly Cloudy